Location: Newark
(40.9833°N, 0.0333°W)
Time: 01:32:31
(UTC+00:00)

Altair - Pass Details

Date: 27 October 2020
Orbit: 1502 x 1682 km, 47.2° (Epoch: 02 December)

Event Time Altitude Azimuth Distance (km) Brightness Sun altitude
Rises 06:15:58 0° 249° (WSW) 4,650 9.5 -2.6°
Reaches altitude 10° 06:18:58 10° 251° (WSW) 3,684 9.0 -2.0°
Maximum altitude 06:28:18 78° 338° (NNW) 1,591 7.6 -0.3°
Drops below altitude 10° 06:38:02 10° 65° (ENE) 3,826 10.4 1.4°
Sets 06:41:13 0° 67° (ENE) 4,837 10.9 2.0°
